Terminal Aerodrome Forecast
Issued by NWS Rapid City, SD

Home | Current Version | Previous Version | Text Only | Print | Product List | Glossary Off
Versions: 1 2 3 4 5 6 7 8 9 10 11 12 13 14 15 16

000
FTUS43 KUNR 182300
TAFRAP
TAF
KRAP 182320Z 1900/1924 15010KT P6SM BKN200
     FM190400 19010KT P6SM BKN150 WS015/21045KT
     FM190900 34012KT P6SM BKN150=

USA.gov is the U.S. government's official web portal to all federal, state and local government web resources and services.